Regional Weather Roundup
Issued by NWS

Home | Current Version | Previous Version | Text Only | Print | Product List | Glossary On
Versions: 1 2 3 4 5 6 7 8 9 10 11 12 13 14 15 16 17 18 19 20 21 22 23 24 25 26 27 28 29 30 31 32 33 34 35 36 37 38 39 40 41 42 43 44 45 46 47 48 49 50
444
ASUS44 KLIX 011605
RWRLA
LOUISIANA WEATHER ROUNDUP
NATIONAL WEATHER SERVICE NEW ORLEANS LA
1100 AM CDT FRI AUG 01 2014

NOTE: "FAIR" INDICATES FEW OR NO CLOUDS BELOW 12,000 FEET WITH NO
      SIGNIFICANT WEATHER AND/OR OBSTRUCTIONS TO VISIBILITY.
      SKY/WX - SKY CONDITION AND SIGNIFICANT WEATHER.
      TMP - AIR TEMPERATURE.    DP   - DEWPOINT TEMPERATURE.
      RH  - RELATIVE HUMIDITY.  PRES - PRESSURE.
      HX  - HEAT INDEX.         WCI  - WIND CHILL INDEX.

*  THESE STATIONS ARE NOT NWS OR FAA STATIONS AND ARE NOT UNDER
   NWS QUALITY CONTROL.

LAZ040-048-061>063-065-066-069-011700-
SOUTHEAST LOUISIANA

CITY           SKY/WX    TMP DP  RH WIND       PRES   REMARKS
N.O. AUDUBON     N/A     87  70  56 MISG        N/A
N.O. INTL ARPT CLOUDY    86  69  56 S9        30.01S
N.O. LAKEFRONT PTSUNNY   84  69  60 E5        30.02S
N.O. DOWNTOWN* FAIR      86  66  51 CALM      30.01F
SLIDELL        CLOUDY    82  68  62 VRB3      30.02S
BATON ROUGE    LGT RAIN  76  72  87 E7        30.01S
BOOTHVILLE     PTSUNNY   84  65  52 E3        30.03R
BELLE CHASSE   PTSUNNY   85  70  60 SE7       30.01F
BOGALUSA*      CLOUDY    77  67  71 CALM      30.05R
GALLIANO*      NOT AVBL
NEW ROADS*     RAIN      75  73  91 CALM      30.01R
GONZALES*      FAIR      81  75  80 S3        30.01S
HAMMOND*       CLOUDY    81  66  61 E3        30.04R
HOUMA*         PTSUNNY   88  66  48 SE5       30.02S
PORT FOURCHON* SUNNY     84  68  58 E5        30.03F

$$

LAZ041-044-053-054-011700-
SOUTHWEST LOUISIANA

CITY           SKY/WX    TMP DP  RH WIND       PRES   REMARKS
LAKE CHARLES   CLOUDY    78  75  90 SW5       29.98S
LAFAYETTE      RAIN      79  75  87 SE5       30.00S
PATTERSON      CLOUDY    81  75  83 SE3       30.04S
SALT POINT       N/A     83  77  82 SE3       29.99S
NEW IBERIA     CLOUDY    80  76  87 SE7       30.01R
CHENAULT AIRPK MOSUNNY   79  73  83 S7        29.99S

$$

LAZ027-028-011700-
CENTRAL LOUISIANA

CITY           SKY/WX    TMP DP  RH WIND       PRES   REMARKS
FORT POLK      CLOUDY    78  73  84 W8        29.98R
ALEXANDRIA INT CLOUDY    75  73  93 SE8       29.96S
ALEXANDRIA     LGT RAIN  73  70  90 NE7       29.99R FOG

$$

LAZ001-002-011700-
NORTHWEST LOUISIANA

CITY           SKY/WX    TMP DP  RH WIND       PRES   REMARKS
SHREVEPORT     DRZL/FOG  70  68  93 N7        30.00R VSB 1
BARKSDALE AFB  NOT AVBL
DTN SHREVEPORT LGT RAIN  68  66  93 NE5       30.00S FOG

$$

LAZ014-016-011700-
NORTHEAST LOUISIANA

CITY           SKY/WX    TMP DP  RH WIND       PRES   REMARKS
MONROE         RAIN      68  66  94 E9G16     30.03R VSB 1
TALLULAH       LGT RAIN  71  67  87 E6        30.04R

$$




USA.gov is the U.S. government's official web portal to all federal, state and local government web resources and services.